TimePDT,TemperatureF,Dew PointF,Humidity,Sea Level PressureIn,VisibilityMPH,Wind Direction,Wind SpeedMPH,Gust SpeedMPH,PrecipitationIn,Events,Conditions,WindDirDegrees,DateUTC
12:15 AM,59.0,-18.4,4,29.88,10.0,NNW,20.7,29.9,N/A,,Clear,330,2013-03-23 07:15:00
12:35 AM,59.0,-18.4,4,29.89,10.0,NNW,19.6,31.1,N/A,,Clear,330,2013-03-23 07:35:00
1:15 AM,55.4,-0.4,10,29.91,10.0,North,19.6,-,N/A,,Clear,360,2013-03-23 08:15:00
1:35 AM,55.4,1.4,11,29.91,10.0,North,25.3,29.9,N/A,,Clear,10,2013-03-23 08:35:00
1:55 AM,55.4,3.2,12,29.93,10.0,North,23.0,33.4,N/A,,Clear,10,2013-03-23 08:55:00
2:15 AM,53.6,5.0,14,29.94,10.0,North,21.9,26.5,N/A,,Clear,10,2013-03-23 09:15:00
2:35 AM,53.6,5.0,14,29.95,10.0,NNE,18.4,25.3,N/A,,Clear,20,2013-03-23 09:35:00
2:55 AM,51.8,10.4,19,29.97,10.0,NE,12.7,20.7,N/A,,Clear,40,2013-03-23 09:55:00
3:15 AM,50.0,14.0,24,29.98,10.0,NE,17.3,21.9,N/A,,Clear,50,2013-03-23 10:15:00
3:35 AM,48.2,14.0,25,29.98,10.0,NNE,23.0,27.6,N/A,,Clear,30,2013-03-23 10:35:00
3:55 AM,48.2,14.0,25,29.99,10.0,NNE,18.4,25.3,N/A,Thunderstorm,Clear,30,2013-03-23 10:55:00
4:15 AM,48.2,10.4,22,30.00,10.0,NE,20.7,27.6,N/A,,Clear,40,2013-03-23 11:15:00
4:35 AM,48.2,14.0,25,30.00,10.0,NE,20.7,25.3,N/A,,Clear,40,2013-03-23 11:35:00
4:55 AM,46.4,12.2,25,30.01,10.0,NE,17.3,24.2,N/A,,Clear,40,2013-03-23 11:55:00
5:15 AM,46.4,12.2,25,30.04,10.0,NNE,16.1,21.9,N/A,,Clear,30,2013-03-23 12:15:00
5:35 AM,46.4,10.4,23,30.05,10.0,NNE,12.7,-,N/A,,Clear,30,2013-03-23 12:35:00
5:55 AM,46.4,10.4,23,30.06,10.0,NNE,13.8,23.0,N/A,Thunderstorm,Clear,30,2013-03-23 12:55:00
6:15 AM,46.4,8.6,22,30.07,10.0,NNE,13.8,23.0,N/A,,Clear,20,2013-03-23 13:15:00
6:35 AM,44.6,8.6,23,30.09,10.0,NNE,9.2,-,N/A,,Clear,30,2013-03-23 13:35:00
6:55 AM,44.6,8.6,23,30.10,10.0,NNE,15.0,19.6,N/A,,Clear,30,2013-03-23 13:55:00
7:15 AM,46.4,8.6,22,30.11,10.0,NNE,13.8,19.6,N/A,,Clear,20,2013-03-23 14:15:00
7:35 AM,46.4,8.6,22,30.12,10.0,NNE,17.3,24.2,N/A,,Clear,20,2013-03-23 14:35:00
7:55 AM,46.4,8.6,22,30.14,10.0,NNE,17.3,24.2,N/A,,Clear,20,2013-03-23 14:55:00
8:15 AM,46.4,8.6,22,30.15,10.0,NNE,20.7,25.3,N/A,,Clear,30,2013-03-23 15:15:00
8:35 AM,48.2,8.6,20,30.16,10.0,NE,19.6,27.6,N/A,,Clear,40,2013-03-23 15:35:00
8:55 AM,48.2,8.6,20,30.17,10.0,NNE,19.6,24.2,N/A,,Clear,30,2013-03-23 15:55:00
9:15 AM,50.0,8.6,19,30.18,10.0,NE,16.1,23.0,N/A,,Clear,40,2013-03-23 16:15:00
9:35 AM,50.0,8.6,19,30.18,10.0,NE,15.0,21.9,N/A,,Clear,40,2013-03-23 16:35:00
9:55 AM,50.0,8.6,19,30.19,10.0,NE,16.1,24.2,N/A,,Clear,40,2013-03-23 16:55:00
10:15 AM,50.0,8.6,19,30.19,10.0,NE,17.3,-,N/A,,Clear,50,2013-03-23 17:15:00
10:35 AM,51.8,8.6,18,30.19,10.0,NE,17.3,20.7,N/A,,Clear,50,2013-03-23 17:35:00
10:55 AM,51.8,8.6,18,30.19,10.0,NE,16.1,23.0,N/A,,Clear,40,2013-03-23 17:55:00
11:15 AM,53.6,8.6,16,30.18,10.0,NE,16.1,20.7,N/A,,Clear,40,2013-03-23 18:15:00
11:35 AM,53.6,8.6,16,30.18,10.0,NE,17.3,23.0,N/A,,Clear,40,2013-03-23 18:35:00
11:55 AM,53.6,8.6,16,30.17,10.0,NNE,15.0,19.6,N/A,,Clear,30,2013-03-23 18:55:00
12:15 PM,53.6,6.8,15,30.16,10.0,NE,11.5,18.4,N/A,,Clear,40,2013-03-23 19:15:00
12:35 PM,55.4,8.6,15,30.15,10.0,NNE,17.3,21.9,N/A,,Clear,30,2013-03-23 19:35:00
12:55 PM,55.4,6.8,14,30.13,10.0,NNE,13.8,23.0,N/A,,Clear,20,2013-03-23 19:55:00
1:15 PM,55.4,5.0,13,30.13,10.0,NE,13.8,21.9,N/A,,Clear,40,2013-03-23 20:15:00
1:35 PM,55.4,5.0,13,30.12,10.0,NE,16.1,20.7,N/A,,Clear,50,2013-03-23 20:35:00
1:55 PM,57.2,5.0,12,30.12,10.0,NE,12.7,23.0,N/A,,Clear,40,2013-03-23 20:55:00
2:15 PM,57.2,1.4,10,30.11,10.0,NNE,15.0,-,N/A,,Clear,20,2013-03-23 21:15:00
2:35 PM,57.2,1.4,10,30.10,10.0,North,13.8,20.7,N/A,,Clear,10,2013-03-23 21:35:00
2:55 PM,57.2,1.4,10,30.09,10.0,NNE,12.7,18.4,N/A,,Clear,20,2013-03-23 21:55:00
3:15 PM,57.2,1.4,10,30.09,10.0,NNE,9.2,-,N/A,,Clear,30,2013-03-23 22:15:00
3:35 PM,57.2,1.4,10,30.08,10.0,ENE,11.5,17.3,N/A,,Clear,60,2013-03-23 22:35:00
3:55 PM,59.0,1.4,10,30.08,10.0,NNE,5.8,-,N/A,,Clear,30,2013-03-23 22:55:00
4:15 PM,59.0,-0.4,9,30.07,10.0,NE,12.7,-,N/A,,Clear,50,2013-03-23 23:15:00
4:35 PM,59.0,-0.4,9,30.06,10.0,ENE,11.5,-,N/A,,Clear,60,2013-03-23 23:35:00
4:55 PM,57.2,-0.4,10,30.06,10.0,ENE,5.8,-,N/A,,Clear,60,2013-03-23 23:55:00
5:15 PM,59.0,-0.4,9,30.05,10.0,ENE,6.9,-,N/A,,Clear,60,2013-03-24 00:15:00
5:35 PM,57.2,-0.4,10,30.05,10.0,East,6.9,-,N/A,,Clear,90,2013-03-24 00:35:00
5:55 PM,57.2,-0.4,10,30.05,10.0,ENE,5.8,-,N/A,,Clear,60,2013-03-24 00:55:00
6:15 PM,57.2,-0.4,10,30.05,10.0,ENE,6.9,-,N/A,,Clear,70,2013-03-24 01:15:00
6:35 PM,57.2,-0.4,10,30.05,10.0,ENE,5.8,-,N/A,,Clear,60,2013-03-24 01:35:00
6:55 PM,55.4,1.4,11,30.05,10.0,Calm,Calm,-,N/A,,Clear,0,2013-03-24 01:55:00
7:15 PM,55.4,-0.4,10,30.05,10.0,ENE,4.6,-,N/A,,Clear,60,2013-03-24 02:15:00
7:35 PM,51.8,5.0,15,30.05,10.0,NE,5.8,-,N/A,Thunderstorm,Clear,40,2013-03-24 02:35:00
7:55 PM,50.0,6.8,17,30.06,10.0,NE,3.5,-,N/A,,Clear,40,2013-03-24 02:55:00
8:15 PM,50.0,10.4,20,30.07,10.0,NE,6.9,-,N/A,,Clear,40,2013-03-24 03:15:00
8:35 PM,48.2,17.6,30,30.07,10.0,NNE,6.9,-,N/A,,Clear,30,2013-03-24 03:35:00
8:55 PM,48.2,8.6,20,30.07,10.0,North,6.9,-,N/A,,Clear,360,2013-03-24 03:55:00
9:15 PM,46.4,6.8,20,30.07,10.0,North,5.8,-,N/A,,Clear,360,2013-03-24 04:15:00
9:35 PM,48.2,5.0,17,30.07,10.0,Calm,Calm,-,N/A,,Clear,0,2013-03-24 04:35:00
9:55 PM,44.6,5.0,20,30.08,10.0,Calm,Calm,-,N/A,,Clear,0,2013-03-24 04:55:00
10:15 PM,44.6,6.8,21,30.08,10.0,NE,3.5,-,N/A,Thunderstorm,Clear,40,2013-03-24 05:15:00
10:35 PM,44.6,8.6,23,30.08,10.0,NNE,3.5,-,N/A,,Clear,20,2013-03-24 05:35:00
10:55 PM,44.6,6.8,21,30.08,10.0,NNE,3.5,-,N/A,,Clear,20,2013-03-24 05:55:00
11:15 PM,44.6,6.8,21,30.08,10.0,Calm,Calm,-,N/A,,Clear,0,2013-03-24 06:15:00
11:35 PM,42.8,8.6,25,30.08,10.0,Calm,Calm,-,N/A,,Clear,0,2013-03-24 06:35:00
11:55 PM,44.6,3.2,18,30.08,10.0,Calm,Calm,-,N/A,,Clear,0,2013-03-24 06:55:00